Location: Bougoura
(13.1861°N, 5.0773°W)
Time: 09:31:48
(UTC+00:00)

Okean O Rocket - Pass Details

Date: 24 January 2021
Orbit: 622 x 645 km, 98.2° (Epoch: 25 February)

Event Time Altitude Azimuth Distance (km) Brightness Sun altitude
Rises 05:34:16 0° 44° (NE) 2,892 5.4 -17.8°
Reaches altitude 10° 05:37:41 10° 73° (ENE) 1,984 5.0 -17.0°
Maximum altitude 05:39:33 13° 99° (E) 1,814 5.2 -16.6°
Drops below altitude 10° 05:41:25 10° 125° (SE) 1,983 5.3 -16.1°
Sets 05:44:49 0° 154° (SSE) 2,890 5.7 -15.3°
